H1 CPF 1 NER 2017 2 16 9 5471 glonass121 H2 1000702 9121 36401 2017 2 16 0 0 0 2017 2 19 23 45 0 900 1 1 0 0 0 H9 10 0 57800 0.00000 0 6949998.286 -24325392.440 3185004.110 10 0 57800 900.00000 0 6660926.612 -23778535.812 6347207.986 10 0 57800 1800.00000 0 6368875.843 -22832617.049 9385936.488 10 0 57800 2700.00000 0 6129560.198 -21505189.081 12242047.147 10 0 57800 3600.00000 0 5994746.051 -19826683.790 14859941.341 10 0 57800 4500.00000 0 6009847.084 -17839272.600 17188654.171 10 0 57800 5400.00000 0 6211796.952 -15595248.801 19182853.201 10 0 57800 6300.00000 0 6627290.722 -13154998.991 20803726.032 10 0 57800 7200.00000 0 7271470.470 -10584648.599 22019739.052 10 0 57800 8100.00000 0 8147111.469 -7953480.052 22807252.516 10 0 57800 9000.00000 0 9244344.116 -5331231.451 23150980.062 10 0 57800 9900.00000 0 10540923.898 -2785388.662 23044283.931 10 0 57800 10800.00000 0 12003038.552 -378583.528 22489300.465 10 0 57800 11700.00000 0 13586618.813 1833793.692 21496893.797 10 0 57800 12600.00000 0 15239097.824 3805668.716 20086438.977 10 0 57800 13500.00000 0 16901545.452 5501958.977 18285439.072 10 0 57800 14400.00000 0 18511087.882 6899782.042 16128983.965 10 0 57800 15300.00000 0 20003510.830 7989147.714 13659061.693 10 0 57800 16200.00000 0 21315936.985 8773106.705 10923735.968 10 0 57800 17100.00000 0 22389465.179 9267351.523 7976206.183 10 0 57800 18000.00000 0 23171660.340 9499288.291 4873768.573 10 0 57800 18900.00000 0 23618789.679 9506620.438 1676699.097 10 0 57800 19800.00000 0 23697711.271 9335505.629 -1552919.900 10 0 57800 20700.00000 0 23387335.866 9038365.133 -4752405.973 10 0 57800 21600.00000 0 22679600.871 8671439.228 -7859692.188 10 0 57800 22500.00000 0 21579915.898 8292192.685 -10814528.340 10 0 57800 23400.00000 0 20107061.523 7956680.309 -13559644.474 10 0 57800 24300.00000 0 18292545.690 7716983.886 -16041854.506 10 0 57800 25200.00000 0 16179444.702 7618828.550 -18213079.121 10 0 57800 26100.00000 0 13820777.076 7699478.737 -20031268.806 10 0 57800 27000.00000 0 11277477.611 7986002.015 -21461210.123 10 0 57800 27900.00000 0 8616055.261 8493973.590 -22475200.528 10 0 57800 28800.00000 0 5906031.303 9226675.848 -23053579.589 10 0 57800 29700.00000 0 3217262.945 10174826.810 -23185107.045 10 0 57800 30600.00000 0 617262.113 11316849.488 -22867180.892 10 0 57800 31500.00000 0 -1831380.697 12619671.762 -22105891.380 10 0 57800 32400.00000 0 -4073361.977 14040024.557 -20915909.666 10 0 57800 33300.00000 0 -6062723.229 15526185.360 -19320212.660 10 0 57800 34200.00000 0 -7764516.852 17020095.546 -17349648.504 10 0 57800 35100.00000 0 -9156011.415 18459764.188 -15042349.996 10 0 57800 36000.00000 0 -10227386.580 19781858.749 -12443006.087 10 0 57800 36900.00000 0 -10981888.981 20924374.702 -9602004.472 10 0 57800 37800.00000 0 -11435442.729 21829272.292 -6574460.921 10 0 57800 38700.00000 0 -11615731.036 22444969.490 -3419153.441 10 0 57800 39600.00000 0 -11560787.715 22728585.574 -197381.715 10 0 57800 40500.00000 0 -11317158.166 22647839.913 3028226.037 10 0 57800 41400.00000 0 -10937707.899 22182524.661 6194935.236 10 0 57800 42300.00000 0 -10479171.768 21325487.891 9241131.626 10 0 57800 43200.00000 0 -9999548.383 20083084.305 12107527.803 10 0 57800 44100.00000 0 -9555450.913 18475073.149 14738325.186 10 0 57800 45000.00000 0 -9199527.422 16533966.524 17082307.857 10 0 57800 45900.00000 0 -8978060.951 14303854.528 19093846.237 10 0 57800 46800.00000 0 -8928851.892 11838755.857 20733790.506 10 0 57800 47700.00000 0 -9079473.040 9200562.612 21970235.972 10 0 57800 48600.00000 0 -9445971.787 6456665.064 22779145.411 10 0 57800 49500.00000 0 -10032074.829 3677355.460 23144816.331 10 0 57800 50400.00000 0 -10828929.287 933119.195 23060184.295 10 0 57800 51300.00000 0 -11815391.418 -1708073.890 22526956.698 10 0 57800 52200.00000 0 -12958850.883 -4183365.578 21555574.788 10 0 57800 53100.00000 0 -14216555.813 -6437384.979 20165004.990 10 0 57800 54000.00000 0 -15537382.872 -8424305.728 18382363.947 10 0 57800 54900.00000 0 -16863977.673 -10109499.974 16242384.838 10 0 57800 55800.00000 0 -18135175.298 -11470721.436 13786735.655 10 0 57800 56700.00000 0 -19288598.852 -12498769.697 11063202.979 10 0 57800 57600.00000 0 -20263326.542 -13197609.756 8124757.391 10 0 57800 58500.00000 0 -21002514.788 -13583943.670 5028519.089 10 0 57800 59400.00000 0 -21455866.884 -13686254.207 1834644.183 10 0 57800 60300.00000 0 -21581843.241 -13543362.568 -1394846.349 10 0 57800 61200.00000 0 -21349520.217 -13202562.495 -4597271.837 10 0 57800 62100.00000 0 -20740019.461 -12717410.804 -7710507.579 10 0 57800 63000.00000 0 -19747447.811 -12145268.521 -10674187.294 10 0 57800 63900.00000 0 -18379308.405 -11544696.978 -13430868.993 10 0 57800 64800.00000 0 -16656365.817 -10972818.979 -15927142.029 10 0 57800 65700.00000 0 -14611970.725 -10482756.213 -18114654.391 10 0 57800 66600.00000 0 -12290872.103 -10121250.557 -19951041.047 10 0 57800 67500.00000 0 -9747565.920 -9926568.916 -21400736.279 10 0 57800 68400.00000 0 -7044248.308 -9926779.212 -22435655.270 10 0 57800 69300.00000 0 -4248457.296 -10138469.537 -23035732.606 10 0 57800 70200.00000 0 -1430499.784 -10565964.045 -23189308.082 10 0 57800 71100.00000 0 1339230.977 -11201068.593 -22893352.796 10 0 57800 72000.00000 0 3992937.527 -12023357.219 -22153531.317 10 0 57800 72900.00000 0 6467990.235 -13000988.252 -20984098.509 10 0 57800 73800.00000 0 8709283.860 -14092016.888 -19407632.385 10 0 57800 74700.00000 0 10671281.801 -15246150.422 -17454607.317 10 0 57800 75600.00000 0 12319663.946 -16406873.715 -15162814.723 10 0 57800 76500.00000 0 13632510.076 -17513856.822 -12576641.253 10 0 57800 77400.00000 0 14600969.734 -18505544.422 -9746217.353 10 0 57800 78300.00000 0 15229390.756 -19321818.634 -6726451.717 10 0 57800 79200.00000 0 15534901.136 -19906623.131 -3575969.617 10 0 57800 80100.00000 0 15546461.821 -20210437.530 -355975.461 10 0 57800 81000.00000 0 15303430.430 -20192496.875 2870938.363 10 0 57800 81900.00000 0 14853696.720 -19822661.330 6042012.869 10 0 57800 82800.00000 0 14251468.912 -19082855.784 9095549.565 10 0 57800 83700.00000 0 13554805.060 -17968017.027 11972118.605 10 0 57800 84600.00000 0 12822994.619 -16486507.021 14615723.561 10 0 57800 85500.00000 0 12113901.808 -14659973.414 16974899.167 10 0 57801 0.00000 0 11481384.016 -12522661.985 19003719.894 10 0 57801 900.00000 0 10972895.552 -10120208.471 20662699.350 10 0 57801 1800.00000 0 10627377.732 -7507960.697 21919562.093 10 0 57801 2700.00000 0 10473526.820 -4748899.382 22749873.343 10 0 57801 3600.00000 0 10528511.234 -1911245.227 23137514.047 10 0 57801 4500.00000 0 10797193.766 934148.529 23074992.295 10 0 57801 5400.00000 0 11271890.906 3716509.473 22563585.444 10 0 57801 6300.00000 0 11932679.439 6367852.588 21613310.504 10 0 57801 7200.00000 0 12748237.047 8825567.636 20242723.699 10 0 57801 8100.00000 0 13677181.153 11034780.226 18478553.485 10 0 57801 9000.00000 0 14669849.175 12950389.060 16355174.409 10 0 57801 9900.00000 0 15670444.757 14538695.398 13913932.347 10 0 57801 10800.00000 0 16619459.097 15778558.104 11202334.540 10 0 57801 11700.00000 0 17456264.956 16662027.562 8273120.419 10 0 57801 12600.00000 0 18121773.603 17194433.548 5183231.695 10 0 57801 13500.00000 0 18561042.447 17393925.278 1992702.090 10 0 57801 14400.00000 0 18725723.188 17290484.664 -1236511.369 10 0 57801 15300.00000 0 18576247.211 16924456.008 -4441732.342 10 0 57801 16200.00000 0 18083656.105 16344655.448 -7560780.824 10 0 57801 17100.00000 0 17231000.243 15606140.992 -10533176.752 10 0 57801 18000.00000 0 16014246.609 14767737.879 -13301308.184 10 0 57801 18900.00000 0 14442657.687 13889423.962 -15811541.729 10 0 57801 19800.00000 0 12538625.283 13029685.262 -18015254.244 10 0 57801 20700.00000 0 10336965.896 12242952.709 -19869766.477 10 0 57801 21600.00000 0 7883706.393 11577227.337 -21339161.512 10 0 57801 22500.00000 0 5234409.750 11071993.037 -22394973.117 10 0 57801 23400.00000 0 2452109.402 10756503.814 -23016731.568 10 0 57801 24300.00000 0 -395063.300 10648516.828 -23192357.145 10 0 57801 25200.00000 0 -3236461.590 10753523.967 -22918394.216 10 0 57801 26100.00000 0 -6001610.151 11064514.120 -22200081.513 10 0 57801 27000.00000 0 -8622886.456 11562276.367 -21051257.070 10 0 57801 27900.00000 0 -11038086.853 12216231.958 -19494099.077 10 0 57801 28800.00000 0 -13192771.971 12985761.013 -17558706.802 10 0 57801 29700.00000 0 -15042294.933 13821969.220 -15282528.593 10 0 57801 30600.00000 0 -16553428.632 14669821.243 -12709646.812 10 0 57801 31500.00000 0 -17705524.442 15470551.944 -9889932.444 10 0 57801 32400.00000 0 -18491154.130 16164254.414 -6878084.741 10 0 57801 33300.00000 0 -18916208.037 16692535.899 -3732573.796 10 0 57801 34200.00000 0 -18999445.255 17001129.293 -514506.250 10 0 57801 35100.00000 0 -18771514.685 17042349.221 2713563.850 10 0 57801 36000.00000 0 -18273488.228 16777287.900 5888855.609 10 0 57801 36900.00000 0 -17554968.204 16177656.579 8949588.790 10 0 57801 37800.00000 0 -16671849.274 15227193.234 11836193.559 10 0 57801 38700.00000 0 -15683830.025 13922575.367 14492478.036 10 0 57801 39600.00000 0 -14651780.054 12273797.862 16866729.909 10 0 57801 40500.00000 0 -13635074.574 10303998.445 18912729.931 10 0 57801 41400.00000 0 -12689009.869 8048736.781 20590656.986 10 0 57801 42300.00000 0 -11862409.339 5554756.478 21867866.663 10 0 57801 43200.00000 0 -11195521.611 2878281.009 22719528.116 10 0 57801 44100.00000 0 -10718299.572 82914.234 23129106.858 10 0 57801 45000.00000 0 -10449132.858 -2762767.153 23088684.300 10 0 57801 45900.00000 0 -10394086.955 -5587829.180 22599108.170 10 0 57801 46800.00000 0 -10546680.499 -8321695.454 21669971.231 10 0 57801 47700.00000 0 -10888209.579 -10896848.519 20319419.078 10 0 57801 48600.00000 0 -11388604.657 -13251405.650 18573791.120 10 0 57801 49500.00000 0 -12007783.230 -15331462.458 16467101.971 10 0 57801 50400.00000 0 -12697440.490 -17093107.304 14040373.696 10 0 57801 51300.00000 0 -13403201.721 -18504023.586 11340832.122 10 0 57801 52200.00000 0 -14067044.979 -19544614.211 8420983.136 10 0 57801 53100.00000 0 -14629891.234 -20208602.606 5337587.308 10 0 57801 54000.00000 0 -15034252.178 -20503086.729 2150553.110 10 0 57801 54900.00000 0 -15226823.537 -20448045.433 -1078229.408 10 0 57801 55800.00000 0 -15160914.193 -20075319.529 -4286091.381 10 0 57801 56700.00000 0 -14798608.464 -19427111.865 -7410800.733 10 0 57801 57600.00000 0 -14112570.273 -18554070.758 -10391766.894 10 0 57801 58500.00000 0 -13087413.165 -17513038.379 -13171211.225 10 0 57801 59400.00000 0 -11720578.423 -16364559.374 -15695280.754 10 0 57801 60300.00000 0 -10022684.141 -15170254.705 -17915084.175 10 0 57801 61200.00000 0 -8017330.257 -13990170.893 -19787630.695 10 0 57801 62100.00000 0 -5740367.025 -12880215.484 -21276654.462 10 0 57801 63000.00000 0 -3238656.517 -11889785.602 -22353309.607 10 0 57801 63900.00000 0 -568377.647 -11059688.169 -22996723.296 10 0 57801 64800.00000 0 2207056.213 -10420438.055 -23194396.915 10 0 57801 65700.00000 0 5019382.149 -9991004.706 -22942448.137 10 0 57801 66600.00000 0 7798077.734 -9778059.209 -22245689.347 10 0 57801 67500.00000 0 10473050.409 -9775753.105 -21117540.751 10 0 57801 68400.00000 0 12977316.163 -9966038.297 -19579779.260 10 0 57801 69300.00000 0 15249557.526 -10319515.013 -17662127.159 10 0 57801 70200.00000 0 17236455.607 -10796772.833 -15401687.451 10 0 57801 71100.00000 0 18894699.802 -11350169.110 -12842235.539 10 0 57801 72000.00000 0 20192591.673 -11925970.629 -10033379.901 10 0 57801 72900.00000 0 21111176.097 -12466768.792 -7029606.979 10 0 57801 73800.00000 0 21644852.187 -12914066.674 -3889228.043 10 0 57801 74700.00000 0 21801438.052 -13210928.583 -673248.180 10 0 57801 75600.00000 0 21601686.439 -13304579.621 2555820.726 10 0 57801 76500.00000 0 21078271.396 -13148844.379 5735179.593 10 0 57801 77400.00000 0 20274288.630 -12706320.386 8802969.899 10 0 57801 78300.00000 0 19241332.950 -11950192.860 11699484.940 10 0 57801 79200.00000 0 18037234.264 -10865612.407 14368340.047 10 0 57801 80100.00000 0 16723548.211 -9450575.784 16757578.033 10 0 57801 81000.00000 0 15362907.955 -7716270.967 18820687.552 10 0 57801 81900.00000 0 14016349.455 -5686870.440 20517513.967 10 0 57801 82800.00000 0 12740723.598 -3398780.188 21815044.532 10 0 57801 83700.00000 0 11586304.606 -899374.799 22688052.512 10 0 57801 84600.00000 0 10594695.588 1754729.190 23119587.750 10 0 57801 85500.00000 0 9797119.344 4499790.037 23101304.330 10 0 57802 0.00000 0 9213165.882 7267359.728 22633619.352 10 0 57802 900.00000 0 8850048.962 9986904.678 21725699.935 10 0 57802 1800.00000 0 8702401.321 12588519.034 20395279.419 10 0 57802 2700.00000 0 8752617.604 15005617.811 18668306.230 10 0 57802 3600.00000 0 8971727.877 17177498.561 16578432.914 10 0 57802 4500.00000 0 9320764.938 19051664.664 14166355.376 10 0 57802 5400.00000 0 9752566.199 20585814.438 11479015.529 10 0 57802 6300.00000 0 10213933.230 21749413.830 8568683.068 10 0 57802 7200.00000 0 10648056.933 22524787.994 5491934.656 10 0 57802 8100.00000 0 10997105.159 22907687.393 2308550.677 10 0 57802 9000.00000 0 11204862.861 22907306.118 -919648.656 10 0 57802 9900.00000 0 11219312.846 22545753.032 -4130004.756 10 0 57802 10800.00000 0 10995047.809 21856999.399 -7260236.146 10 0 57802 11700.00000 0 10495411.665 20885348.408 -10249644.219 10 0 57802 12600.00000 0 9694279.774 19683491.914 -13040285.836 10 0 57802 13500.00000 0 8577402.916 18310236.715 -15578090.351 10 0 57802 14400.00000 0 7143258.304 16827996.129 -17813899.900 10 0 57802 15300.00000 0 5403371.512 15300152.104 -19704413.451 10 0 57802 16200.00000 0 3382095.276 13788398.018 -21213017.262 10 0 57802 17100.00000 0 1115853.458 12350172.748 -22310486.606 10 0 57802 18000.00000 0 -1348119.315 11036292.527 -22975546.082 10 0 57802 18900.00000 0 -3953491.290 9888878.575 -23195278.450 10 0 57802 19800.00000 0 -6636930.860 8939666.164 -22965374.652 10 0 57802 20700.00000 0 -9330501.938 8208764.946 -22290220.335 10 0 57802 21600.00000 0 -11964259.744 7703921.731 -21182817.083 10 0 57802 22500.00000 0 -14468940.859 7420316.165 -19664539.315 10 0 57802 23400.00000 0 -16778637.117 7340897.831 -17764730.731 10 0 57802 24300.00000 0 -18833343.325 7437250.777 -15520147.022 10 0 57802 25200.00000 0 -20581273.511 7670949.554 -12974254.402 10 0 57802 26100.00000 0 -21980849.422 7995350.146 -10176396.421 10 0 57802 27000.00000 0 -23002278.295 8357740.778 -7180844.193 10 0 57802 27900.00000 0 -23628653.616 8701762.038 -4045747.618 10 0 57802 28800.00000 0 -23856532.225 8969994.077 -832007.672 10 0 57802 29700.00000 0 -23695963.066 9106601.068 2397908.442 10 0 57802 30600.00000 0 -23169965.869 9059920.257 5581185.938 10 0 57802 31500.00000 0 -22313481.366 8784884.941 8655890.464 10 0 57802 32400.00000 0 -21171837.139 8245177.394 11562180.828 10 0 57802 33300.00000 0 -19798793.837 7415019.077 14243481.882 10 0 57802 34200.00000 0 -18254254.417 6280520.785 16647593.740 10 0 57802 35100.00000 0 -16601733.404 4840534.045 18727714.950 10 0 57802 36000.00000 0 -14905693.283 3106966.246 20443359.107 10 0 57802 36900.00000 0 -13228860.659 1104544.882 21761146.586 10 0 57802 37800.00000 0 -11629635.475 -1129960.457 22655455.887 10 0 57802 38700.00000 0 -10159702.330 -3549026.701 23108921.948 10 0 57802 39600.00000 0 -8861944.197 -6096123.314 23112771.944 10 0 57802 40500.00000 0 -7768745.753 -8707843.258 22666992.364 10 0 57802 41400.00000 0 -6900756.810 -11316330.401 21780324.489 10 0 57802 42300.00000 0 -6266166.890 -13851902.291 20470088.736 10 0 57802 43200.00000 0 -5860520.140 -16245759.197 18761841.637 10 0 57802 44100.00000 0 -5667077.057 -18432666.755 16688872.424 10 0 57802 45000.00000 0 -5657706.365 -20353500.543 14291549.312 10 0 57802 45900.00000 0 -5794268.059 -21957546.913 11616528.487 10 0 57802 46800.00000 0 -6030427.938 -23204464.544 8715841.413 10 0 57802 47700.00000 0 -6313825.867 -24065825.457 5645878.604 10 0 57802 48600.00000 0 -6588505.119 -24526171.976 2466289.953 10 0 57802 49500.00000 0 -6797499.311 -24583546.425 -761176.698 10 0 57802 50400.00000 0 -6885466.944 -24249472.512 -3973875.710 10 0 57802 51300.00000 0 -6801261.754 -23548390.406 -7109478.979 10 0 57802 52200.00000 0 -6500329.996 -22516570.323 -10107182.720 10 0 57802 53100.00000 0 -5946833.301 -21200551.179 -12908882.222 10 0 57802 54000.00000 0 -5115407.475 -19655170.537 -15460292.079 10 0 57802 54900.00000 0 -3992483.015 -17941268.834 -17711990.690 10 0 57802 55800.00000 0 -2577111.582 -16123164.147 -19620369.431 10 0 57802 56700.00000 0 -881263.286 -14266002.853 -21148469.019 10 0 57802 57600.00000 0 1070418.421 -12433096.300 -22266687.854 10 0 57802 58500.00000 0 3241394.978 -10683353.887 -22953349.490 10 0 57802 59400.00000 0 5584512.915 -9068918.587 -23195119.119 10 0 57802 60300.00000 0 8043734.270 -7633102.420 -22987261.514 10 0 57802 61200.00000 0 10556246.859 -6408706.921 -22333735.674 10 0 57802 62100.00000 0 13054868.426 -5416797.765 -21247124.196 10 0 57802 63000.00000 0 15470646.460 -4665983.916 -19748398.217 10 0 57802 63900.00000 0 17735546.996 -4152231.067 -17866521.616 10 0 57802 64800.00000 0 19785121.758 -3859216.921 -15637901.094 10 0 57802 65700.00000 0 21561043.409 -3759213.441 -13105691.537 10 0 57802 66600.00000 0 23013403.503 -3814459.188 -10318968.972 10 0 57802 67500.00000 0 24102677.212 -3978964.188 -7331786.136 10 0 57802 68400.00000 0 24801272.296 -4200671.358 -4202128.142 10 0 57802 69300.00000 0 25094596.762 -4423883.178 -990788.158 10 0 57802 70200.00000 0 24981599.698 -4591850.705 2239815.138 10 0 57802 71100.00000 0 24474761.807 -4649414.719 5426855.092 10 0 57802 72000.00000 0 23599535.351 -4545586.231 8508325.218 10 0 57802 72900.00000 0 22393256.634 -4235955.859 11424253.253 10 0 57802 73800.00000 0 20903576.529 -3684828.550 14117876.620 10 0 57802 74700.00000 0 19186475.190 -2866991.810 16536755.340 10 0 57802 75600.00000 0 17303944.674 -1769041.024 18633799.998 10 0 57802 76500.00000 0 15321437.301 -390204.348 20368194.089 10 0 57802 77400.00000 0 13305187.459 1257369.046 21706192.312 10 0 57802 78300.00000 0 11319519.623 3148870.781 22621779.149 10 0 57802 79200.00000 0 9424255.771 5247635.256 23097174.950 10 0 57802 80100.00000 0 7672330.876 7506448.965 23123179.844 10 0 57802 81000.00000 0 6107716.078 9869312.994 22699349.164 10 0 57802 81900.00000 0 4763735.874 12273585.478 21833997.323 10 0 57802 82800.00000 0 3661848.919 14652414.722 20544030.448 10 0 57802 83700.00000 0 2810942.249 16937361.623 18854611.403 10 0 57802 84600.00000 0 2207167.063 19061102.084 16798664.011 10 0 57802 85500.00000 0 1834321.341 20960096.653 14416226.417 10 0 57803 0.00000 0 1664761.512 22577116.167 11753666.530 10 0 57803 900.00000 0 1660803.114 23863517.940 8862774.652 10 0 57803 1800.00000 0 1776549.860 24781178.386 5799752.252 10 0 57803 2700.00000 0 1960072.578 25304000.432 2624115.665 10 0 57803 3600.00000 0 2155844.779 25418934.986 -602462.745 10 0 57803 4500.00000 0 2307331.065 25126473.220 -3817353.360 10 0 57803 5400.00000 0 2359618.299 24440590.580 -6958184.408 10 0 57803 6300.00000 0 2261977.898 23388145.619 -9964049.696 10 0 57803 7200.00000 0 1970250.806 22007759.725 -12776685.442 10 0 57803 8100.00000 0 1448954.381 20348225.368 -15341593.674 10 0 57803 9000.00000 0 673022.286 18466509.885 -17609090.936 10 0 57803 9900.00000 0 -370895.918 16425438.469 -19535262.554 10 0 57803 10800.00000 0 -1683630.391 14291152.911 -21082804.952 10 0 57803 11700.00000 0 -3253216.104 12130451.600 -22221740.587 10 0 57803 12600.00000 0 -5055159.646 10008120.869 -22929992.627 10 0 57803 13500.00000 0 -7053237.728 7984367.797 -23193809.016 10 0 57803 14400.00000 0 -9200795.451 6112460.113 -23008028.337 10 0 57803 15300.00000 0 -11442491.751 4436670.308 -22376182.524 10 0 57803 16200.00000 0 -13716421.083 2990608.380 -21310434.346 10 0 57803 17100.00000 0 -15956524.730 1796011.694 -19831350.359 10 0 57803 18000.00000 0 -18095192.838 862041.734 -17967512.905 10 0 57803 18900.00000 0 -20065950.140 185116.598 -15754977.605 10 0 57803 19800.00000 0 -21806114.343 -250714.048 -13236585.611 10 0 57803 20700.00000 0 -23259316.651 -472867.304 -10461142.816 10 0 57803 21600.00000 0 -24377779.225 -518836.597 -7482480.839 10 0 57803 22500.00000 0 -25124253.835 -434370.977 -4358417.198 10 0 57803 23400.00000 0 -25473539.784 -271301.039 -1149634.442 10 0 57803 24300.00000 0 -25413516.463 -85103.599 2081500.077 10 0 57803 25200.00000 0 -24945646.172 67691.306 5272150.604 10 0 57803 26100.00000 0 -24084925.049 132140.521 8360241.214 10 0 57803 27000.00000 0 -22859283.397 57462.094 11285671.193 10 0 57803 27900.00000 0 -21308459.971 -200566.536 13991492.993 10 0 57803 28800.00000 0 -19482397.318 -677489.440 16425028.815 10 0 57803 29700.00000 0 -17439225.495 -1398423.327 18538903.280 10 0 57803 30600.00000 0 -15242919.013 -2376754.341 20291971.446 10 0 57803 31500.00000 0 -12960725.629 -3613336.851 21650123.613 10 0 57803 32400.00000 0 -10660475.063 -5096229.306 22586951.106 10 0 57803 33300.00000 0 -8407880.558 -6800979.315 23084260.112 10 0 57803 34200.00000 0 -6263946.312 -8691446.831 23132423.755 10 0 57803 35100.00000 0 -4282588.965 -10721131.561 22730565.878 10 0 57803 36000.00000 0 -2508572.048 -12834949.493 21886573.371 10 0 57803 36900.00000 0 -975838.960 -14971384.402 20616937.130 10 0 57803 37800.00000 0 293687.005 -17064924.523 18946425.158 10 0 57803 38700.00000 0 1290786.851 -19048682.596 16907594.435 10 0 57803 39600.00000 0 2019087.233 -20857089.659 14540151.385 10 0 57803 40500.00000 0 2494654.913 -22428549.986 11890173.650 10 0 57803 41400.00000 0 2745063.231 -23707946.171 9009208.561 10 0 57803 42300.00000 0 2807971.644 -24648889.572 5953266.211 10 0 57803 43200.00000 0 2729279.930 -25215622.204 2781727.049 10 0 57803 44100.00000 0 2560936.346 -25384490.742 -443814.471 10 0 57803 45000.00000 0 2358493.514 -25144931.388 -3660747.242 10 0 57803 45900.00000 0 2178516.198 -24499924.938 -6806658.377 10 0 57803 46800.00000 0 2075951.135 -23465903.622 -9820541.860 10 0 57803 47700.00000 0 2101570.369 -22072114.284 -12643977.433 10 0 57803 48600.00000 0 2299596.176 -20359465.090 -15222257.138 10 0 57803 49500.00000 0 2705607.776 -18378904.325 -17505438.143 10 0 57803 50400.00000 0 3344817.971 -16189399.180 -19449302.067 10 0 57803 51300.00000 0 4230792.250 -13855598.643 -21016203.119 10 0 57803 52200.00000 0 5364664.402 -11445277.362 -22175789.609 10 0 57803 53100.00000 0 6734881.957 -9026666.176 -22905585.718 10 0 57803 54000.00000 0 8317492.913 -6665779.212 -23191423.161 10 0 57803 54900.00000 0 10076962.881 -4423847.456 -23027714.935 10 0 57803 55800.00000 0 11967489.845 -2354964.183 -22417566.113 10 0 57803 56700.00000 0 13934763.267 -504038.826 -21372719.458 10 0 57803 57600.00000 0 15918095.828 1094856.770 -19913336.401 10 0 57803 58500.00000 0 17852840.421 2419681.751 -18067616.815 10 0 57803 59400.00000 0 19672992.969 3461110.305 -15871263.915 10 0 57803 60300.00000 0 21313873.448 4222678.261 -13366803.387 10 0 57803 61200.00000 0 22714773.684 4720386.350 -10602768.810 10 0 57803 62100.00000 0 23821461.314 4981776.911 -7632768.097 10 0 57803 63000.00000 0 24588434.766 5044522.986 -4514448.184 10 0 57803 63900.00000 0 24980833.921 4954589.317 -1308377.717 10 0 57803 64800.00000 0 24975925.271 4764043.123 1923130.759 10 0 57803 65700.00000 0 24564097.965 4528607.675 5117235.940 10 0 57803 66600.00000 0 23749327.584 4305062.804 8211795.956 10 0 57803 67500.00000 0 22549087.009 4148603.372 11146584.967 10 0 57803 68400.00000 0 20993707.119 4110268.685 13864473.527 10 0 57803 69300.00000 0 19125213.505 4234552.979 16312548.768 10 0 57803 70200.00000 0 16995687.620 4557299.449 18443151.740 10 0 57803 71100.00000 0 14665220.952 5103968.248 20214811.085 10 0 57803 72000.00000 0 12199548.069 5888352.848 21593054.342 10 0 57803 72900.00000 0 9667457.797 6911800.085 22551080.918 10 0 57803 73800.00000 0 7138090.940 8162967.710 23070283.682 10 0 57803 74700.00000 0 4678237.633 9618130.397 23140609.143 10 0 57803 75600.00000 0 2349747.014 11242021.938 22760749.610 10 0 57803 76500.00000 0 207156.946 12989178.698 21938163.915 10 0 57803 77400.00000 0 -1704357.892 14805728.136 20688926.718 10 0 57803 78300.00000 0 -3350634.966 16631547.593 19037409.695 10 0 57803 79200.00000 0 -4709702.317 18402702.834 17015801.105 10 0 57803 80100.00000 0 -5772438.754 20054064.112 14663473.402 10 0 57803 81000.00000 0 -6542689.991 21521990.001 12026211.493 10 0 57803 81900.00000 0 -7036837.793 22746966.464 9155316.851 10 0 57803 82800.00000 0 -7282842.150 23676090.392 6106605.327 10 0 57803 83700.00000 0 -7318798.666 24265293.515 2939318.431 10 0 57803 84600.00000 0 -7191073.660 24481213.524 -285030.397 10 0 57803 85500.00000 0 -6952097.059 24302634.112 -3503851.678 99